Location: Ch�risy
(50.2331°N, 2.9131°E)
Time: 19:52:18
(UTC+00:00)

Cosmos 158 Rocket - Pass Details

Date: 17 January 2021
Orbit: 698 x 794 km, 74.0° (Epoch: 27 February)

Event Time Altitude Azimuth Distance (km) Brightness Sun altitude
Rises 18:42:54 0° 337° (NNW) 3,243 7.5 -22.7°
Reaches altitude 10° 18:45:16 10° 339° (NNW) 2,326 6.7 -23.0°
Maximum altitude 18:50:34 72° 64° (ENE) 828 3.9 -23.9°
Enters shadow 18:51:24 60° 119° (ESE) 897 4.0 -24.0°
